Lapse_Rate
0.4 -0.4 0.2 0.9 0.8 0.4 0.2 0.3 0.7 1.2 1.8 2.3 2.4 2.5 2.5 2.5 2.8 3.1 3.4 3.7 4.0 4.4 4.7 4.8 4.8 5.0 5.5 5.6 5.4 5.1 5.4 5.6 5.1 5.5 5.8 5.8 5.8 5.8 5.6 5.4 5.8 5.8 5.8
0.6 -0.6 -0.0 0.9 1.1 0.8 0.6 0.5 0.8 1.2 1.7 2.3 2.5 2.6 2.6 2.6 2.8 3.2 3.6 3.9 4.3 4.6 4.9 4.9 5.0 5.2 5.3 5.3 5.2 5.1 5.2 5.2 5.3 5.8 5.5 5.7 5.8 6.0 5.7 5.6 6.0 5.6 6.2
0.7 0.1 -0.1 0.7 1.3 1.2 1.1 0.9 1.0 1.4 1.8 2.2 2.5 2.6 2.6 2.7 2.7 3.0 3.6 4.0 4.4 4.6 4.8 5.0 5.0 5.2 5.1 5.2 5.2 5.3 5.5 5.5 5.3 5.2 5.1 5.1 5.6 5.9 5.6 5.3 5.4 6.0 6.0
1.2 0.7 0.1 0.6 1.3 1.5 1.4 1.2 1.3 1.7 2.0 2.3 2.5 2.7 2.6 2.6 2.7 3.0 3.2 3.8 4.3 4.7 4.9 5.1 4.9 5.0 4.9 5.1 5.3 5.3 5.3 5.0 4.8 4.9 4.8 5.4 5.9 5.6 5.5 5.2 5.7 6.0 6.6
1.6 1.4 1.1 0.7 1.4 1.7 1.6 1.5 1.6 1.8 2.1 2.3 2.5 2.6 2.7 2.6 2.6 3.0 3.1 3.5 4.1 4.5 4.9 4.9 4.7 4.5 4.6 4.7 4.8 4.9 5.1 5.2 5.1 4.8 4.7 4.4 5.7 5.7 5.4 5.5 5.6 5.8 6.0
3.0 2.4 1.6 1.6 1.4 1.9 1.9 1.6 1.8 1.9 2.1 2.3 2.5 2.6 2.6 2.7 2.6 2.9 3.1 3.4 3.9 4.4 4.8 4.7 4.0 4.2 4.3 4.5 4.8 4.8 5.0 5.4 4.9 4.4 4.4 5.1 5.6 5.8 5.6 5.3 5.5 5.8 6.0
2.3 2.3 2.1 2.3 2.4 2.1 2.0 1.9 2.0 2.0 2.1 2.3 2.7 2.7 2.6 2.7 2.7 2.7 3.0 3.6 3.8 4.1 4.2 4.1 3.8 3.8 4.1 4.1 4.4 4.8 5.2 4.9 4.7 5.0 4.4 4.5 5.6 5.9 5.7 5.3 5.4 5.5 5.1
1.6 1.3 2.2 2.4 3.1 2.8 2.4 2.3 2.4 2.3 2.3 2.5 2.8 2.8 2.8 2.8 2.8 2.7 2.9 3.3 3.8 3.8 3.7 3.6 3.6 3.5 3.9 3.9 4.2 4.9 5.2 5.3 4.1 4.0 4.6 4.5 5.7 6.0 5.7 5.3 5.3 5.2 4.9
2.4 2.0 1.9 2.4 2.8 2.9 2.7 2.4 2.5 2.5 2.5 2.6 2.8 3.0 3.0 3.0 2.9 2.8 2.9 3.1 3.4 3.5 3.4 3.2 3.2 3.3 3.7 4.0 4.3 5.0 5.1 5.4 4.5 4.1 4.2 4.5 5.4 5.9 5.7 5.3 5.1 4.9 4.9
2.5 2.1 1.5 1.8 2.1 1.9 1.7 2.6 2.6 2.6 2.5 2.7 2.9 3.2 3.2 3.2 3.1 3.0 3.0 3.1 3.1 3.1 3.1 3.1 3.0 3.2 3.5 4.0 4.3 4.9 5.6 5.5 4.7 4.4 4.6 4.4 5.1 5.7 5.6 5.3 4.9 4.6 4.8
3.1 3.0 2.6 2.6 2.2 1.7 1.6 1.9 2.3 2.5 2.5 2.6 2.8 3.1 3.1 2.9 2.9 3.0 2.7 3.0 3.0 3.0 2.9 2.9 2.9 3.0 3.4 3.9 4.2 4.6 5.7 4.9 4.3 4.4 4.7 4.9 5.3 5.7 5.5 5.2 4.6 4.7 5.1
3.7 4.0 3.3 2.5 2.8 3.2 3.6 2.2 1.9 2.0 2.3 2.1 2.2 2.5 2.5 2.6 2.5 2.8 2.6 3.0 3.1 3.2 3.1 2.9 2.8 3.2 3.3 3.2 3.5 4.1 4.5 4.8 4.4 4.1 4.4 5.3 5.6 5.7 5.6 5.2 4.8 5.2 5.5
1.9 1.0 1.3 2.4 4.0 3.6 4.6 3.4 2.1 2.2 2.4 2.7 2.3 2.8 2.8 2.8 2.7 2.8 2.6 2.8 2.7 2.9 2.4 2.4 2.2 2.1 2.4 2.6 2.9 3.1 4.1 4.5 4.5 4.4 4.8 5.4 5.7 5.9 5.5 5.2 5.1 5.4 5.7
-0.5 0.4 0.7 0.3 -0.1 0.5 5.0 4.2 4.0 3.5 2.7 2.5 2.9 2.6 2.8 3.1 3.1 3.0 2.6 3.0 2.8 2.1 1.6 1.7 1.3 1.7 2.2 2.8 3.3 3.2 3.8 4.4 4.0 4.4 4.9 5.3 6.5 6.5 6.1 5.2 5.3 5.5 5.6
-1.8 -1.6 -2.0 -1.0 -1.1 -0.9 -0.5 3.1 4.9 3.6 4.0 3.1 2.5 2.6 2.9 2.8 3.1 2.8 2.7 3.1 2.9 1.8 1.7 1.3 1.2 1.7 1.8 2.4 3.5 3.7 3.8 4.5 3.7 3.7 4.4 5.9 5.7 6.3 6.1 6.0 5.7 5.6 5.6
-1.6 -2.6 -2.7 -2.1 -2.0 -1.6 -1.9 -1.4 -1.1 5.0 4.2 4.2 3.6 3.1 2.7 3.3 3.0 3.0 3.1 3.0 2.9 2.0 1.9 1.8 1.4 1.6 2.2 2.3 2.9 3.7 4.2 4.8 4.8 3.8 4.1 4.5 5.4 5.7 6.3 6.1 6.2 6.3 6.0
-1.2 -2.3 -3.7 -3.0 -3.4 -3.1 -3.3 -2.4 -2.0 0.3 5.0 4.6 4.4 4.1 3.3 3.5 3.2 3.5 3.6 3.3 2.7 2.2 2.3 2.2 1.9 2.1 2.4 2.7 3.4 3.3 4.9 5.3 5.0 4.5 4.3 4.4 4.4 5.1 5.6 5.9 6.4 6.4 6.2
-1.7 -2.7 -3.1 -3.5 -4.2 -4.2 -4.1 -3.2 -2.1 -1.6 0.2 4.8 5.2 4.3 4.6 5.2 4.2 3.6 4.0 4.3 3.3 2.5 2.7 2.9 2.8 2.8 3.1 3.4 3.9 3.5 5.1 5.4 4.8 5.0 4.7 4.6 4.6 4.6 4.8 5.5 6.0 6.4 6.4
-0.6 -1.2 -2.4 -2.8 -2.8 -3.4 -3.1 -2.7 -2.4 -2.2 -1.7 1.0 5.2 6.3 5.7 5.4 5.5 4.3 4.5 4.5 3.8 3.2 3.1 3.8 3.8 3.5 3.6 3.8 4.1 3.6 4.8 4.8 5.2 4.7 4.7 4.7 4.7 4.5 4.5 4.6 5.6 6.2 6.5
0.1 0.2 0.4 -0.4 -1.2 -1.1 -1.2 -0.7 -0.4 -1.6 -1.7 -1.0 1.9 4.8 6.7 6.2 6.2 4.9 5.0 4.5 4.1 4.4 4.0 4.3 4.5 3.8 4.3 3.9 4.9 4.3 4.2 4.8 4.5 4.2 4.1 4.5 4.3 4.4 4.4 4.3 4.3 4.5 5.7
-1.0 -0.8 -0.3 0.1 -0.2 -0.1 -0.0 0.2 -0.8 0.2 -0.9 -1.4 0.1 3.2 4.9 6.0 5.8 5.8 5.9 4.7 4.3 5.2 4.9 4.4 4.6 4.1 4.1 3.9 2.7 3.3 3.6 3.3 4.5 5.3 5.3 4.6 3.9 3.8 3.8 4.0 3.9 4.0 3.9
0.1 -0.7 -1.0 -0.2 1.8 2.0 2.3 2.5 2.9 3.1 2.3 0.8 0.0 2.3 4.5 5.0 5.7 5.8 6.4 5.8 4.7 5.6 5.5 5.2 5.2 5.3 4.8 3.8 4.7 3.5 3.8 3.8 2.6 3.0 2.9 3.8 3.8 4.1 3.8 3.9 3.7 3.6 3.9
0.8 0.2 0.8 2.5 2.1 3.5 3.7 4.1 3.8 4.5 3.8 2.9 2.3 2.0 4.7 5.3 5.0 5.5 6.0 5.8 6.2 5.3 5.7 5.3 5.5 5.8 5.3 3.4 4.1 4.1 3.1 4.7 2.9 2.0 3.1 3.2 3.2 3.1 4.0 4.3 4.1 3.8 3.6
1.8 1.5 2.5 3.6 4.2 4.7 5.0 6.0 5.8 6.2 5.8 6.5 4.0 2.1 1.5 4.1 5.4 5.6 5.4 6.3 5.6 5.7 5.5 5.4 5.3 5.7 6.4 5.6 2.4 4.0 2.8 2.1 3.8 3.6 2.6 2.7 3.1 3.5 3.3 3.0 3.4 3.8 3.8
3.3 3.1 4.1 4.7 4.7 4.8 5.4 5.8 5.4 5.5 6.2 6.5 6.4 4.2 1.8 2.6 4.7 4.9 5.7 5.6 5.2 8.0 5.9 5.2 5.0 5.3 5.6 5.8 5.3 4.2 2.9 2.3 2.2 2.1 2.7 2.3 2.4 2.8 3.4 3.0 3.1 2.6 3.1
3.9 3.6 4.4 4.5 5.4 5.3 5.1 5.0 5.2 4.9 4.9 5.8 6.5 5.5 3.5 2.6 4.2 4.5 5.3 5.8 5.7 5.3 4.9 5.4 4.6 4.7 5.4 5.7 4.9 5.0 5.4 5.4 3.6 2.3 2.3 2.1 2.2 2.2 2.4 2.5 2.7 2.9 3.4
Wind_Speed
1 7 11 9 10 15 20 21 20 20 20 20 18 18 19 19 20 20 19 19 17 16 15 14 14 14 14 13 13 14 16 17 18 17 16 16 18 16 15 13 14 13 15
10 9 13 11 10 12 17 19 19 19 20 19 20 19 18 18 18 18 17 17 16 16 15 13 14 14 14 12 13 15 17 17 18 18 17 16 13 14 14 13 14 13 15
11 11 10 14 12 12 14 16 17 17 19 20 20 21 19 17 18 17 15 14 13 15 15 13 13 12 12 12 13 16 15 15 16 14 15 13 14 15 15 14 14 15 14
11 11 10 13 13 11 12 14 15 16 16 18 18 19 19 18 17 17 16 14 12 12 14 13 13 12 11 12 12 14 13 14 11 10 9 9 12 14 15 14 14 14 15
7 10 11 13 12 11 12 13 14 15 16 18 18 19 18 18 17 16 16 15 13 12 13 13 13 12 12 10 11 12 12 10 9 10 7 6 11 12 14 15 14 16 17
8 11 15 14 14 13 13 14 14 15 16 17 18 19 20 18 18 17 15 15 13 12 12 12 13 13 13 11 10 10 9 8 8 9 9 10 13 14 15 15 16 17 19
6 9 13 17 15 14 13 14 14 15 16 16 16 18 19 19 18 18 16 14 14 13 13 11 13 13 13 11 10 9 7 7 8 6 8 8 13 14 16 15 17 18 18
8 7 9 14 16 14 12 13 14 15 16 16 16 17 17 18 19 19 17 16 14 14 13 13 12 12 12 12 11 10 7 3 9 10 9 10 15 16 16 17 18 19 19
5 5 7 9 13 17 14 15 16 17 17 17 17 17 17 18 20 19 18 17 16 15 13 14 13 11 11 12 11 10 6 2 6 14 9 13 16 16 17 17 18 19 19
2 5 5 8 9 9 11 17 16 17 18 19 18 18 18 19 20 19 19 18 17 17 15 15 14 12 11 10 11 9 6 5 11 9 10 13 19 17 17 17 18 19 19
0 1 2 5 5 8 7 10 17 18 18 19 18 18 18 12 15 17 16 19 18 18 17 16 15 14 11 9 10 9 6 5 13 12 14 15 18 19 18 18 18 19 18
11 10 8 1 3 5 7 10 11 12 12 12 12 13 13 13 13 15 17 21 19 18 17 17 16 14 12 8 7 7 6 7 11 12 15 22 19 19 19 19 19 18 18
11 14 17 17 18 6 6 5 4 9 11 12 12 14 12 12 12 11 10 13 13 17 12 14 14 12 11 10 8 7 7 7 12 11 12 21 21 20 20 19 20 20 18
17 16 17 16 12 20 13 3 6 6 10 9 13 17 13 7 8 9 9 13 13 12 10 11 9 11 11 11 10 9 8 9 12 14 15 22 22 23 22 21 22 21 18
21 19 17 16 15 14 13 14 7 8 8 13 17 19 17 9 8 9 8 13 13 13 11 8 9 8 7 9 10 9 7 10 13 15 15 23 22 23 22 22 21 22 20
19 19 18 17 16 18 12 12 10 11 11 12 13 17 22 16 8 8 9 10 10 14 13 11 8 7 7 7 7 10 8 10 12 13 14 18 25 23 24 23 22 22 21
15 17 19 19 20 17 17 13 12 13 16 7 10 19 22 22 14 10 10 10 9 16 15 12 8 7 6 6 8 6 9 11 12 12 12 14 18 23 22 24 25 24 23
17 19 20 19 18 18 16 13 11 16 14 11 11 15 21 24 22 12 11 11 14 14 10 9 8 8 8 8 7 6 7 7 10 15 14 12 14 16 22 24 24 25 25
17 19 20 19 20 21 16 14 13 15 10 13 13 14 17 22 22 14 12 11 14 10 10 10 9 9 8 7 8 7 7 6 7 9 9 13 15 16 16 19 24 25 25
15 16 17 16 19 19 14 11 10 11 10 14 11 10 20 19 24 16 14 13 12 11 10 10 12 9 9 9 9 7 7 8 5 5 9 12 14 17 17 18 19 19 26
18 19 20 19 19 15 13 13 13 12 13 12 11 16 13 14 17 16 14 14 15 14 15 14 12 12 10 9 4 1 2 5 9 8 7 7 8 14 16 15 16 15 16
18 20 22 21 17 15 12 13 12 13 9 13 13 16 13 15 16 17 19 15 19 16 17 17 17 11 10 10 7 4 4 2 3 5 5 7 10 9 9 16 16 17 16
18 19 19 19 20 17 18 13 13 14 10 9 10 11 12 12 14 16 20 17 19 17 15 18 18 18 13 8 11 5 3 7 3 3 9 6 7 6 7 10 15 16 18
17 17 17 19 19 18 18 15 17 13 15 12 12 13 13 19 15 16 17 21 24 15 19 18 16 17 14 13 1 7 3 5 4 1 3 4 5 8 8 6 6 12 15
14 15 16 19 20 20 19 17 14 15 13 12 12 15 16 15 16 15 13 16 19 21 19 20 17 18 13 13 12 6 2 2 3 3 3 3 2 5 7 7 8 9 15
15 17 17 19 19 20 20 19 18 18 17 14 13 13 11 11 11 14 11 8 16 14 11 14 18 20 17 15 12 10 12 9 5 4 3 2 3 4 5 6 8 8 13
Wind_Direction
159 168 165 154 141 129 124 125 126 124 121 118 113 110 109 111 112 112 113 114 116 115 113 107 104 102 100 101 106 108 106 112 114 116 117 115 114 117 117 115 124 113 120
135 160 156 152 146 134 131 132 134 133 130 128 125 121 118 116 114 112 116 119 121 119 115 110 107 106 103 112 113 111 113 113 111 112 111 106 111 116 116 114 114 116 124
140 150 156 153 151 143 140 139 140 140 139 137 134 131 128 124 119 118 116 115 122 122 121 121 108 109 112 118 118 116 115 112 103 107 105 104 109 118 120 116 116 118 113
143 138 145 153 152 154 154 149 147 147 145 142 140 137 135 133 129 126 123 120 120 123 123 124 117 114 121 118 116 114 118 115 102 115 103 110 116 121 122 122 122 116 113
124 133 143 151 153 164 163 156 158 157 156 150 150 145 142 141 137 135 130 128 127 129 131 130 126 126 127 127 118 121 122 123 121 125 116 131 124 128 128 127 123 120 117
130 136 154 156 159 168 174 169 171 169 166 161 160 152 150 149 146 145 139 137 136 133 135 135 132 137 134 129 122 126 136 144 111 136 137 153 138 142 138 134 133 132 128
131 151 161 164 165 172 176 176 179 178 176 172 169 161 157 154 153 152 149 147 145 143 138 141 142 146 143 139 135 138 150 146 154 151 121 137 149 142 140 138 137 132 129
135 136 160 175 168 171 181 186 189 191 187 182 179 171 164 161 159 158 156 156 155 154 153 153 156 156 155 147 145 148 157 207 173 157 156 156 156 146 141 140 140 135 134
114 143 169 185 183 174 181 189 196 198 197 193 190 182 175 172 168 164 163 162 161 162 163 163 164 168 166 153 153 151 153 184 169 173 163 150 153 147 147 145 144 142 142
135 174 192 195 191 186 180 188 199 204 204 201 199 193 186 182 178 172 170 170 168 168 170 173 171 173 177 166 158 150 164 178 191 179 170 171 158 152 153 153 151 147 148
148 262 283 272 227 198 199 198 191 204 210 209 203 199 188 183 185 180 178 178 177 175 175 177 177 177 183 186 169 159 156 159 166 164 174 182 164 160 159 160 156 153 155
359 360 314 260 261 275 237 202 195 191 204 206 200 193 189 187 186 185 186 185 182 182 181 180 180 182 184 196 195 176 164 152 168 178 185 177 171 165 167 166 161 165 166
21 23 7 11 339 263 233 232 220 202 197 213 202 196 202 191 191 186 184 187 182 184 179 182 181 184 190 195 207 203 175 170 175 177 188 181 174 170 176 174 170 173 175
12 14 5 1 357 2 301 170 212 256 212 197 207 200 193 202 201 195 189 191 190 183 177 178 181 187 197 204 210 220 186 186 179 178 191 191 188 177 178 179 179 180 179
6 0 1 352 4 2 0 347 286 210 233 219 192 197 200 193 204 198 194 193 195 180 184 184 183 188 194 205 218 220 195 207 184 187 179 197 196 187 180 183 188 187 185
356 354 355 357 360 356 357 339 329 285 221 234 219 200 195 202 198 201 198 195 196 184 187 190 188 191 200 195 211 223 213 206 188 181 184 195 200 200 187 183 192 195 193
355 349 355 359 356 353 344 337 327 314 292 230 228 207 203 198 201 203 201 200 193 187 187 190 195 191 196 200 213 204 222 193 184 190 196 191 203 204 205 195 192 197 200
352 355 353 353 353 350 338 330 324 319 314 281 226 227 216 207 205 202 204 203 194 186 186 191 193 203 204 197 208 212 212 210 181 185 190 189 188 203 214 208 207 201 201
356 353 352 352 348 342 336 326 320 316 313 303 267 240 236 225 210 208 203 201 190 192 189 192 198 195 204 203 200 206 208 211 195 175 190 188 193 198 202 221 212 208 209
357 354 350 347 345 339 335 328 323 319 312 314 301 262 226 232 218 212 206 194 188 196 195 194 196 199 202 205 204 199 206 208 193 188 189 189 197 200 202 203 211 218 217
358 355 352 347 345 341 337 332 329 318 314 306 302 282 244 232 231 224 213 202 190 198 199 193 195 198 204 198 131 165 217 204 199 206 201 191 191 199 197 202 199 205 218
350 349 348 344 342 336 334 325 314 309 299 299 290 280 259 240 237 228 229 210 207 200 198 194 197 201 203 190 188 152 173 292 253 208 191 192 197 196 199 204 196 195 200
350 349 345 338 335 336 332 322 319 316 307 302 308 314 293 257 242 232 227 218 230 202 202 198 197 202 205 204 194 173 138 215 140 198 221 205 195 192 206 206 206 200 198
345 345 339 336 338 335 330 324 322 315 314 310 302 297 299 290 254 242 238 223 222 210 201 204 194 201 200 205 188 207 147 143 175 180 245 216 199 209 202 193 198 220 206
343 344 340 343 341 339 335 328 323 318 315 308 303 296 299 292 273 258 244 224 234 222 213 203 197 196 200 200 201 184 144 149 146 138 184 205 197 210 208 198 196 203 208
346 351 344 345 342 344 340 330 325 320 320 310 316 307 300 294 287 275 264 245 229 250 249 211 202 198 199 203 200 197 201 189 183 151 135 162 194 211 216 208 200 204 208